Location: Newark
(7.1028°S, 35.3258°W)
Time: 01:09:29
(UTC+00:00)

Vanguard 3 - Pass Details

Date: 04 March 2020
Orbit: 508 x 3262 km, 33.3° (Epoch: 28 March)

Event Time Altitude Azimuth Distance (km) Brightness Sun altitude
Rises 22:46:21 0° 241° (WSW) 7,101 12.9 -32.0°
Reaches altitude 10° 22:52:33 10° 229° (SW) 6,196 12.3 -33.5°
Maximum altitude 23:08:10 27° 178° (S) 4,609 10.9 -37.3°
Enters shadow 23:16:19 20° 141° (SE) 4,679 10.7 -39.3°
